Location: Bremen
(53.0793°N, 8.8017°E)
Time: 11:20:57
(UTC+01:00)

Transit 2A - Pass Details

Date: 08 December 2021
Orbit: 591 x 967 km, 66.7° (Epoch: 23 January)

Event Time Altitude Azimuth Distance (km) Brightness Sun altitude
Exits shadow 04:25:27 24° 10° (N) 1,890 8.1 -34.6°
Drops below altitude 10° 04:30:18 10° 59° (ENE) 2,712 9.5 -33.8°
Sets 04:33:25 0° 73° (ENE) 3,642 10.5 -33.4°
